Date,TemperatureHighF,TemperatureAvgF,TemperatureLowF,DewpointHighF,DewpointAvgF,DewpointLowF,HumidityHigh,HumidityAvg,HumidityLow,PressureMaxIn,PressureMinIn,WindSpeedMaxMPH,WindSpeedAvgMPH,GustSpeedMaxMPH,PrecipitationSumIn
2013-5-1,78.1,64.6,52.9,58.3,50.2,39.8,89,63,37,29.12,28.99,16,6,16,0.00
2013-5-2,79.5,64.9,51.3,46.7,41.0,36.1,69,44,23,29.16,29.01,18,5,18,0.00
2013-5-3,74.5,63.0,51.4,51.1,44.5,36.0,66,52,30,29.06,28.96,21,7,21,0.00
2013-5-4,72.7,60.2,47.1,50.0,45.3,38.5,75,59,39,29.01,28.89,21,6,21,0.00
2013-5-5,76.3,61.5,49.8,45.5,39.0,24.9,78,48,17,28.95,28.82,20,6,20,0.00
2013-5-6,72.3,59.9,47.1,58.4,50.2,40.0,88,71,56,28.89,28.80,21,6,21,0.00
2013-5-7,70.0,61.6,55.9,59.5,57.1,55.1,100,86,65,28.82,28.74,20,7,20,0.06
2013-5-8,78.3,63.6,52.5,58.5,53.7,34.2,100,74,34,28.79,28.68,17,5,17,0.19
2013-5-9,77.2,63.7,52.2,63.5,56.3,50.1,100,79,51,28.78,28.68,16,2,16,0.04
2013-5-10,78.8,63.5,57.9,66.8,59.9,55.1,100,89,59,28.79,28.59,22,3,22,0.40
2013-5-11,63.9,56.8,51.4,60.3,25.4,-0.3,100,45,11,28.62,28.56,14,4,14,0.13
2013-5-12,53.4,47.8,39.2,35.8,29.7,4.2,66,50,18,28.82,28.60,27,8,27,0.00
2013-5-13,52.2,44.1,34.0,34.7,31.3,28.4,90,63,42,28.93,28.82,22,7,22,0.00
2013-5-14,62.2,47.6,30.4,45.5,38.0,28.3,100,71,49,28.94,28.67,10,3,10,0.00
2013-5-15,88.2,71.0,55.8,69.3,58.8,43.3,86,66,51,28.67,28.50,23,5,23,0.00
2013-5-16,81.1,71.4,61.3,66.2,57.2,29.3,100,65,19,28.76,28.56,15,3,15,0.19
2013-5-17,84.0,70.1,58.5,64.4,53.4,10.5,100,65,11,28.89,28.75,15,2,15,0.00
2013-5-18,87.1,70.0,56.5,67.2,59.3,50.8,89,70,49,28.92,28.81,13,5,13,0.00
2013-5-19,79.2,68.6,59.0,65.9,57.8,27.1,100,71,18,28.89,28.76,13,3,13,0.06
2013-5-20,90.3,75.3,62.1,72.2,55.7,9.2,100,58,11,28.82,28.69,11,2,11,0.01
2013-5-21,90.3,77.9,66.6,73.2,61.7,17.2,100,66,11,28.75,28.61,14,3,14,0.00
2013-5-22,90.9,74.2,65.8,73.0,63.7,51.9,93,72,40,28.68,28.56,16,4,16,0.01
2013-5-23,81.0,65.2,51.4,66.9,56.1,22.3,100,82,16,28.65,28.56,24,4,24,0.89
2013-5-24,51.4,44.8,39.4,51.3,17.8,-9.6,100,41,11,29.02,28.65,26,12,26,0.05
2013-5-25,61.7,48.2,33.3,43.0,36.3,31.7,100,66,42,29.04,28.96,25,8,25,0.00
2013-5-26,68.0,54.1,36.3,45.3,40.0,32.6,89,61,41,29.03,28.96,21,5,21,0.00
2013-5-27,66.6,55.7,40.5,53.7,46.5,38.3,95,72,50,29.02,28.85,8,2,8,0.00
2013-5-28,82.2,66.9,53.4,66.8,53.5,14.4,100,72,12,28.85,28.75,14,3,14,0.14
2013-5-29,88.5,76.7,66.2,70.8,64.0,58.1,81,66,53,28.86,28.77,13,3,13,0.00
2013-5-30,92.3,78.7,64.9,73.7,67.0,61.8,94,69,46,28.95,28.85,10,1,10,0.00
2013-5-31,93.6,79.2,66.7,73.7,67.4,57.0,100,69,48,28.89,28.75,13,2,13,0.00